OBJECT PW

Last updated on Sun Feb 03 2019 00:02:08 GMT+0000 (Coordinated Universal Time)

1 44030U 98067PW 19032.79793501 .00021106 00000-0 32913-3 0 9998 2 44030 51.6422 314.5459 0005180 10.5837 349.4343 15.53787312 239
UTC large
Height (km)
Speed (km/s)
/
Latitude / Longitude
Inclination (degrees)
Orbital Period (minutes)
Azimuth
Elevation
Range (km)
Doppler Factor

Next 0 passes for location: London (51.5072 / 0.1276)

Sorry there are no passes over London.